#timestamp,LO_Frequency,Hit,StdDev 
1550977215.4,286046999.4,N
1550977235.3,286046996.8,N
1550977255.1,286046999.5,N
1550977275.9,286046996.9,N
1550977295.7,286047001.0,N
1550977315.5,286047000.9,N
1550977335.4,286047000.4,N
1550977355.2,286046998.2,N
1550977375.0,286047000.5,N
1550977376.0,286047000.5,N
1550977395.8,286046999.1,N
1550977415.6,286046998.5,N
1550977435.5,286046999.0,N
1550977455.3,286046998.0,N
1550977475.1,286046996.0,N
1550977495.9,286046994.9,N
1550977515.7,286046999.6,N
1550977535.6,286046999.2,N
1550977555.4,286046999.6,N
1550977575.2,286046999.2,N
1550977595.1,286046998.6,N
1550977596.0,286046998.6,N
1550977615.8,286046999.0,N
1550977635.6,286046997.1,N
1550977655.5,286046996.5,N
1550977675.3,286046999.2,N
1550977695.2,286047000.6,N
1550977715.9,286047000.2,N
1550977735.7,286047000.7,N
1550977755.6,286046999.8,N
1550977775.4,286047003.8,N
1550977795.2,286047005.0,N
1550977815.1,286047004.0,N
1550977816.0,286047004.0,N
1550977835.8,286047006.4,N
1550977855.7,286047005.8,N
1550977875.5,286047004.2,N
1550977895.3,286047001.3,N
1550977915.2,286047001.4,N
1550977935.0,286047000.5,N
1550977935.9,286047000.5,N
1550977955.8,286047000.5,N
1550977975.6,286047000.4,N
1550977995.4,286046998.9,N
1550978015.3,286047000.6,N
1550978035.1,286046999.9,N
1550978055.8,286046998.3,N
1550978075.7,286046998.7,N
1550978095.5,286047000.7,N
1550978115.4,286046998.5,N
1550978135.2,286047002.0,N
1550978155.0,286046999.9,N
1550978155.9,286046999.9,N
1550978175.8,286046999.9,N
1550978195.6,286046999.8,N
1550978215.4,286047002.5,N
1550978235.3,286047000.5,N
1550978255.1,286047002.2,N
1550978275.9,286047002.7,N
1550978295.7,286047002.2,N
1550978315.5,286047002.0,N
1550978335.4,286046999.7,N
1550978355.2,286047000.8,N
1550978375.0,286046998.3,N
1550978376.0,286046998.3,N
1550978395.8,286047001.1,N
1550978415.6,286046998.2,N
1550978435.5,286047000.1,N
1550978455.3,286046998.6,N
1550978475.1,286046999.0,N
1550978495.9,286046997.4,N
1550978515.7,286046996.9,N
1550978535.6,286046999.0,N
1550978555.4,286046998.9,N
1550978575.2,286047000.8,N
1550978595.1,286046999.1,N
1550978596.0,286046999.1,N
1550978615.8,286046996.5,N
1550978635.6,286046998.9,N
1550978655.5,286047000.4,N
1550978675.3,286047000.7,N
1550978695.2,286047002.3,N
1550978715.9,286046998.2,N
1550978735.7,286046998.9,N
1550978755.6,286046999.8,N
1550978775.4,286047001.0,N
1550978795.2,286046999.7,N
1550978815.1,286047000.3,N
1550978816.0,286047000.3,N
1550978835.8,286047011.9,Y
1550978855.7,286047002.8,P
1550978875.5,286047000.4,N
1550978895.3,286047001.7,N
1550978915.2,286047005.8,Y
1550978935.0,286047002.0,P
1550978935.9,286047002.0,P
1550978955.8,286047000.3,N
1550978975.6,286047002.7,Y
1550978995.4,286047001.7,P
1550979015.3,286047007.0,P
1550979035.1,286047003.4,N
1550979055.9,286047004.6,N
1550979075.7,286047005.9,N
1550979095.5,286047004.4,N
1550979115.4,286047002.5,N
1550979135.2,286047002.6,N
1550979155.0,286047003.6,N
1550979155.9,286047003.6,N
1550979175.8,286047000.2,N
1550979195.6,286047001.5,N
1550979215.5,286047004.8,N
1550979235.3,286047004.1,N
1550979255.1,286046999.7,N
1550979275.9,286047001.4,N
1550979295.7,286047004.0,N
1550979315.5,286047005.0,N
1550979335.4,286047005.5,N
1550979355.2,286047003.0,N
1550979375.1,286047003.2,N
1550979376.0,286047003.2,N
1550979395.8,286047003.8,N
1550979415.6,286047001.8,N
1550979435.5,286047004.8,N
1550979455.3,286047007.3,Y
1550979475.2,286047003.9,P
1550979495.9,286047003.2,P
1550979515.7,286046999.9,N
1550979535.6,286047000.1,N
1550979555.4,286047002.1,N
1550979575.2,286047001.7,N
1550979595.1,286047000.5,N
1550979596.0,286047000.5,N
1550979615.8,286047001.5,N
1550979635.7,286046999.8,N
1550979655.5,286047002.2,N
1550979675.3,286047001.6,N
1550979695.2,286047000.6,N
1550979715.0,286046998.1,N
1550979715.9,286046998.1,N
1550979735.7,286046996.6,N
1550979755.6,286046997.1,N
1550979775.4,286047000.7,N
1550979795.3,286046999.4,N
1550979815.1,286046998.6,N
1550979816.0,286046998.6,N
1550979835.8,286046996.5,N
1550979855.7,286046998.3,N
1550979875.5,286046999.5,N
1550979895.3,286046998.2,N
1550979915.2,286047003.2,N
1550979935.0,286047004.3,N
1550979935.9,286047004.3,N
1550979955.8,286047002.1,N
1550979975.6,286047001.5,N
1550979995.4,286047002.4,N
1550980015.3,286047004.1,N
1550980035.1,286047006.0,N
1550980055.9,286047001.5,N
1550980075.7,286047001.6,N
1550980095.5,286047001.8,N
1550980115.4,286047001.0,N
1550980135.2,286047002.0,N
1550980155.0,286047001.8,N
1550980155.9,286047001.8,N
1550980175.8,286047002.4,N
1550980195.6,286047001.6,N
1550980215.5,286047005.0,N
1550980235.3,286047001.4,N
1550980255.1,286047000.3,N
1550980275.9,286047002.8,N
1550980295.7,286047005.2,N
1550980315.5,286047003.9,N
1550980335.4,286047002.6,N
1550980355.2,286047002.8,N
1550980375.1,286047002.2,N
1550980376.0,286047002.2,N
1550980395.8,286047003.0,N
1550980415.6,286047001.9,N
1550980435.5,286047003.6,N
1550980455.3,286047002.1,N
1550980475.1,286046998.2,N
1550980495.9,286046999.5,N
1550980515.7,286047000.9,N
1550980535.6,286046998.6,N
1550980555.4,286046998.8,N
1550980575.2,286046997.6,N
1550980595.1,286046998.7,N
1550980596.0,286046998.7,N
1550980615.8,286047004.4,N
1550980635.6,286047000.9,N
1550980655.5,286046998.5,N
1550980675.3,286046996.8,N
1550980695.2,286046997.3,N
1550980715.9,286046996.6,N
1550980735.7,286046999.4,N
1550980755.6,286046999.9,N
1550980775.4,286047000.8,N
1550980795.3,286046998.1,N
